Temperature
22 23 23 22 22 22 22 21 21 21 21 21 21 20 20 19 18 18 17 17 17 16 16 15 15 14 14 14 14 13 13 13 13 12 12 12 12 12 12 12 12 12 12 11
21 22 22 22 22 22 21 21 21 21 21 21 21 20 19 18 18 17 17 16 16 16 15 15 14 14 14 14 13 13 13 13 12 12 12 12 12 12 12 12 11 11 11 11
20 21 21 20 21 21 21 22 21 20 20 20 20 19 18 18 17 16 16 16 15 15 15 14 14 14 13 13 13 13 12 12 12 12 12 12 11 11 11 11 11 11 11 11
19 20 19 20 22 22 21 21 21 20 20 19 19 18 18 17 16 16 15 15 15 14 14 14 13 13 13 13 13 12 12 12 12 11 11 11 11 11 11 11 11 10 10 10
19 19 19 20 21 21 20 20 20 20 19 19 18 18 17 17 16 15 15 14 14 14 13 13 13 13 13 12 12 12 12 11 11 11 11 11 10 10 10 10 10 10 10 10
19 18 18 19 20 20 20 18 19 19 18 18 18 16 16 16 15 14 14 13 13 13 13 13 13 12 12 12 12 11 11 11 11 10 10 10 10 10 10 10 10 9 9 9
18 18 19 19 20 20 18 17 18 18 18 17 17 16 15 15 14 13 13 13 12 12 12 12 12 12 11 11 11 11 11 10 10 10 10 10 10 9 9 9 9 9 9 9
18 18 17 18 19 18 17 18 17 17 16 16 15 15 14 14 13 13 12 12 12 12 11 11 11 11 11 11 10 10 10 10 10 9 9 9 9 9 9 9 9 9 9 8
17 17 17 17 17 17 17 16 16 16 15 15 14 14 13 13 12 12 12 11 11 11 11 10 10 10 10 10 10 10 10 9 9 9 9 8 8 8 8 8 8 8 8 8
17 17 17 16 16 16 16 15 15 15 14 14 14 13 13 12 12 11 11 11 11 10 10 10 10 10 10 9 9 9 9 9 9 8 8 8 8 8 8 8 8 8 8 7
16 16 16 16 15 15 15 14 14 14 13 13 13 12 12 12 11 11 11 10 10 10 10 9 9 9 9 9 9 9 8 8 8 8 7 7 7 7 7 7 7 7 7 7
15 15 15 14 14 14 14 13 13 13 12 12 12 12 11 11 11 10 10 10 9 9 9 9 9 8 8 8 8 8 8 8 7 7 7 7 7 6 7 7 7 7 7 7
15 14 14 13 13 13 13 13 12 12 12 12 11 11 11 10 10 10 9 9 9 8 8 8 8 8 8 7 7 7 7 7 7 7 7 6 6 6 6 6 6 6 6 6
13 13 13 13 12 12 12 12 11 11 11 11 11 10 10 10 9 9 9 8 8 8 8 8 7 7 7 7 7 7 6 6 6 6 6 6 6 5 5 5 5 6 6 6
12 12 12 12 12 11 11 11 11 11 10 10 10 10 9 9 9 9 8 8 8 7 7 7 7 7 7 6 6 6 6 6 6 5 5 5 5 5 5 5 5 5 5 5
11 11 11 11 11 10 10 10 10 10 10 9 9 9 9 8 8 8 8 7 7 7 7 7 7 6 6 6 6 6 6 5 5 5 5 5 5 5 5 5 5 5 5 5
11 11 10 10 10 10 10 10 10 9 9 9 9 8 8 8 8 7 7 7 7 7 7 6 6 6 6 6 6 5 5 5 5 5 5 5 4 4 4 4 4 4 4 4
10 10 10 10 10 9 9 9 9 9 9 8 8 8 7 7 7 7 7 7 6 6 6 6 6 6 6 5 5 5 5 5 4 4 4 4 4 4 4 4 4 3 3 3
9 9 9 9 9 9 9 9 8 8 8 8 7 7 7 7 7 7 6 6 6 6 6 6 6 5 5 5 5 5 5 4 4 4 4 4 3 3 3 3 3 3 3 3
9 9 9 9 9 8 8 8 8 8 7 7 7 7 7 6 6 6 6 6 6 6 6 5 5 5 5 5 5 5 4 4 4 4 4 3 3 3 3 3 3 3 3 2
8 8 8 8 8 8 8 7 7 7 7 7 6 6 6 6 6 6 6 6 6 5 5 5 5 5 5 5 4 4 4 4 3 3 3 3 3 3 3 3 2 2 2 2
8 8 8 8 7 7 7 7 7 7 6 6 6 6 6 6 5 5 5 5 5 5 5 5 5 5 5 4 4 4 4 3 3 3 3 3 2 2 2 2 2 2 2 2
7 7 7 7 7 7 7 6 6 6 6 6 6 5 5 5 5 5 5 5 5 5 5 5 5 4 4 4 4 3 3 3 3 3 2 2 2 2 2 2 2 2 2 1
7 6 6 6 6 6 6 6 6 6 6 5 5 5 5 5 5 5 5 5 5 5 4 4 4 4 4 4 3 3 3 3 3 2 2 2 2 2 2 1 1 1 1 1
6 6 6 6 6 6 6 5 5 5 5 5 5 5 5 5 4 4 4 4 4 4 4 4 4 4 3 3 3 3 3 2 2 2 2 2 1 1 1 1 1 1 1 1
6 6 5 5 5 5 5 5 5 4 4 4 4 4 4 4 4 4 4 4 4 4 4 4 3 3 3 3 3 2 2 2 2 2 2 1 1 1 1 1 1 1 0 0
5 5 5 5 5 5 4 4 4 4 4 4 4 4 4 4 3 3 3 3 3 3 3 3 3 3 2 2 2 2 2 2 2 1 1 1 1 1 0 0 0 0 0 -0
Wind_Speed
10 8 7 8 8 8 9 8 7 6 3 1 2 3 4 4 4 4 3 3 3 3 2 2 2 2 2 1 1 1 1 1 1 1 1 1 1 1 1 1 1 1 1 0
10 9 8 9 9 9 9 8 8 7 4 1 1 3 3 4 4 3 2 3 2 2 2 2 1 2 2 2 1 1 1 1 1 1 1 1 2 1 1 1 1 1 1 1
8 6 8 9 8 8 6 5 6 6 3 2 3 3 2 2 3 3 3 3 3 3 3 2 1 1 1 1 2 2 1 1 1 1 1 0 1 1 1 1 1 0 0 1
7 8 9 2 1 1 2 3 2 2 2 3 4 3 2 3 4 3 3 3 2 2 2 2 2 1 1 1 2 1 1 1 1 1 1 1 1 1 1 1 0 0 1 0
6 7 7 3 1 1 2 3 1 0 2 3 3 2 1 4 4 3 3 3 2 2 2 1 1 2 1 1 1 2 2 1 1 1 1 1 1 1 1 1 1 1 0 1
7 7 6 0 3 2 1 2 2 1 1 1 1 1 1 3 3 3 3 3 2 2 2 2 2 2 2 1 1 1 1 1 1 1 1 1 1 1 0 0 0 0 1 1
9 9 4 2 3 1 2 1 4 3 2 2 1 1 2 3 3 3 3 2 2 1 1 1 1 2 2 2 2 2 2 2 1 0 1 1 1 1 1 1 0 0 0 1
6 7 3 3 1 1 2 5 5 5 4 3 3 3 3 3 3 3 3 2 1 1 1 1 1 1 2 2 2 3 2 2 1 0 1 0 1 1 1 1 1 1 0 0
3 2 3 4 4 4 4 4 4 4 4 3 2 2 2 2 2 2 1 1 1 0 1 1 1 1 1 1 2 2 1 1 1 1 1 1 1 1 1 1 1 1 1 1
4 1 2 3 4 4 5 4 4 4 4 3 2 2 1 1 1 1 1 1 1 0 1 0 0 1 1 1 1 1 1 1 1 1 1 1 1 0 1 1 1 1 1 1
5 2 2 1 3 4 4 4 4 4 3 3 2 2 2 1 0 1 1 1 1 1 1 0 1 1 1 1 1 2 2 2 1 1 1 1 1 1 1 2 2 2 2 2
4 3 3 2 3 3 3 3 3 2 2 2 2 1 2 1 1 1 1 1 1 1 1 2 2 2 2 1 1 2 2 2 1 1 1 1 1 2 2 2 1 2 2 2
5 5 4 3 4 3 3 3 2 2 1 1 2 2 2 2 1 0 1 1 1 1 1 1 1 2 2 2 2 2 2 2 2 2 1 1 1 1 2 3 3 3 2 2
4 3 3 3 3 3 3 3 3 2 1 1 1 1 1 2 1 0 0 0 0 1 1 1 1 1 2 2 2 2 2 3 2 2 2 2 2 2 2 2 2 3 3 3
4 4 3 2 2 2 2 2 3 2 1 1 1 1 1 1 1 0 1 1 0 0 1 1 1 1 2 1 2 2 2 2 2 2 2 2 2 2 3 3 3 2 1 2
5 3 2 2 2 2 2 3 3 2 1 1 1 1 1 1 1 1 1 0 0 1 1 1 1 1 1 1 2 2 2 4 4 2 2 2 2 3 3 3 2 2 2 1
3 3 3 3 3 3 4 4 3 2 2 1 1 1 1 1 1 1 0 0 0 1 1 1 1 1 1 1 1 2 2 3 4 3 3 2 2 2 2 2 2 2 2 2
4 4 3 3 3 3 3 3 3 2 2 1 1 1 2 2 2 1 1 1 1 2 1 1 0 1 1 2 2 2 2 2 2 3 3 3 3 2 2 2 2 2 2 2
4 4 4 3 3 2 2 2 3 2 2 1 1 2 2 2 2 2 2 2 2 2 2 1 2 1 1 2 2 2 2 2 3 3 2 3 3 2 2 2 2 2 2 2
3 3 3 2 2 2 2 2 2 2 2 2 2 2 3 3 2 2 2 3 2 2 1 1 1 1 1 2 3 2 2 2 2 3 2 2 2 2 2 2 2 2 2 2
2 2 2 2 2 2 2 2 2 2 2 2 2 3 3 3 3 2 2 2 1 1 1 1 1 2 1 2 3 1 1 2 2 2 2 2 2 2 2 2 2 2 2 2
2 2 2 2 2 2 2 2 2 2 2 2 2 3 3 3 3 2 2 1 1 1 1 1 1 1 2 2 1 1 1 2 2 2 2 2 2 2 2 3 3 3 2 2
2 2 2 2 2 2 2 2 2 2 2 2 2 3 3 3 2 2 2 1 0 1 1 1 1 2 2 1 1 2 2 2 2 2 2 2 2 2 2 3 3 2 2 2
2 2 2 2 2 3 3 2 2 2 2 2 2 2 2 2 2 1 1 1 1 1 1 1 2 2 2 2 2 2 1 1 2 2 2 2 2 2 2 2 2 2 2 2
2 2 2 2 2 2 2 2 2 2 2 2 2 1 1 1 1 1 1 0 0 1 1 1 1 2 2 2 1 1 1 1 2 2 2 2 2 2 2 2 2 2 2 2
2 2 1 2 1 1 1 1 1 1 2 2 2 1 1 1 1 1 1 1 0 1 0 0 1 2 1 1 1 1 1 2 2 2 2 2 2 2 2 2 2 2 2 2
2 1 1 1 1 1 1 1 1 1 1 1 2 2 1 1 1 1 1 0 0 1 1 0 1 1 1 1 1 1 1 1 1 2 2 1 1 2 2 2 2 2 2 2
Wind_Direction
280 284 279 271 261 257 255 261 266 281 282 206 126 120 120 112 106 103 97 98 100 106 112 113 122 133 137 133 128 131 126 139 167 183 194 272 278 269 247 245 234 193 165 80
277 271 268 266 256 248 247 253 260 272 280 9 84 83 87 92 95 94 93 81 74 78 96 120 121 119 127 142 136 118 101 74 67 64 72 329 311 311 322 275 255 239 195 162
278 270 272 261 249 242 245 248 265 269 277 56 73 74 72 74 97 96 93 76 66 64 61 50 89 113 117 127 116 121 116 83 67 60 69 344 321 330 319 283 240 234 41 95
275 276 261 258 63 210 242 271 291 314 45 75 69 65 65 77 88 78 77 71 67 64 57 38 29 34 121 92 97 99 89 78 69 71 68 27 22 17 345 4 54 120 119 93
262 267 268 242 210 218 237 263 313 319 93 80 67 46 75 75 79 79 73 64 57 62 53 30 37 40 64 128 122 101 83 68 63 66 68 73 73 41 343 6 3 357 35 76
259 264 262 285 84 66 319 249 52 50 91 101 63 288 319 45 65 66 64 57 55 57 41 38 42 45 44 52 84 83 77 66 71 80 102 131 154 170 280 211 250 305 33 30
251 258 262 50 61 90 240 29 62 43 46 39 326 359 59 50 55 65 65 50 32 32 38 35 33 37 35 31 31 40 44 45 64 112 172 169 163 182 200 165 127 16 50 345
251 253 245 55 50 34 32 44 48 44 45 56 53 49 59 58 53 55 60 49 35 44 46 38 40 50 23 27 27 29 38 31 8 329 284 242 166 209 206 186 193 213 222 290
290 308 42 46 40 38 35 39 39 37 33 45 41 45 46 50 50 46 64 62 37 129 117 55 22 33 36 38 44 30 15 341 325 334 321 346 220 219 213 209 201 212 217 228
282 277 15 37 35 33 30 28 33 36 30 23 20 21 26 6 41 64 22 21 8 313 180 179 8 12 58 69 48 358 323 306 296 322 337 329 314 266 225 240 233 227 230 238
270 282 331 9 29 22 14 13 16 23 21 10 1 354 345 324 337 108 33 33 22 349 302 321 52 42 57 57 8 336 324 324 323 328 309 304 316 290 254 233 216 228 245 228
281 314 308 313 348 345 340 336 344 351 349 359 357 346 337 338 2 63 79 47 28 357 1 15 31 24 29 44 7 332 325 327 320 317 313 311 315 330 326 281 261 243 231 232
316 332 340 336 331 332 323 336 342 340 346 2 357 2 348 335 336 36 87 57 12 349 357 16 24 10 12 9 358 331 321 319 319 318 308 295 288 289 301 315 304 286 275 248
341 339 319 322 326 340 341 342 342 338 344 350 352 2 347 328 317 100 135 96 24 351 354 9 3 355 9 7 3 346 333 321 315 297 292 279 272 271 269 269 277 279 271 259
309 314 308 319 329 318 314 315 309 306 316 341 0 347 334 327 321 354 80 97 99 303 336 351 335 353 21 3 339 329 322 307 297 290 286 281 280 278 274 271 270 272 259 245
289 294 297 281 277 288 291 286 286 292 295 308 325 328 330 327 330 0 61 111 181 267 297 298 299 319 3 337 324 321 314 315 320 307 291 280 281 279 275 273 276 279 253 219
272 267 266 258 258 267 278 283 284 291 293 294 293 303 297 286 271 271 273 248 236 255 263 266 287 329 341 311 303 300 298 301 307 302 286 277 276 272 275 279 279 283 274 243
272 275 264 254 256 265 277 284 287 291 287 282 291 267 259 266 256 250 262 262 272 274 264 258 305 318 304 296 284 274 274 277 282 283 285 289 288 280 273 273 282 290 289 271
263 270 276 270 264 270 286 295 298 297 295 282 266 261 263 267 262 257 254 240 249 263 279 300 311 292 269 285 301 274 272 273 278 280 272 278 285 289 293 294 299 296 297 297
274 274 271 272 272 269 275 280 287 291 291 285 278 279 272 271 263 257 254 241 237 257 280 320 300 282 272 277 295 274 271 271 278 285 281 274 274 277 280 283 285 286 284 279
281 282 274 265 264 268 269 267 272 277 279 269 264 271 274 274 273 268 263 259 264 316 296 268 265 282 282 305 297 296 290 283 276 276 276 276 274 273 271 272 271 270 273 276
273 276 278 278 269 267 269 270 271 275 275 274 276 282 280 276 273 264 255 256 265 274 271 248 247 302 326 320 285 294 293 294 294 293 289 282 272 269 272 276 274 274 276 272
277 281 276 273 273 269 262 264 266 267 265 266 265 270 272 273 268 265 274 280 248 264 258 242 295 306 312 280 262 278 279 282 287 288 289 291 290 287 283 282 281 279 276 274
285 285 287 292 284 276 272 275 281 279 280 277 266 273 285 286 282 281 292 271 304 279 271 225 243 264 275 260 251 262 267 270 278 284 284 283 283 282 282 282 284 287 290 287
284 281 278 279 276 274 283 296 298 297 303 300 295 300 313 318 316 332 360 99 296 292 299 235 244 254 250 255 248 256 261 268 283 289 281 286 286 281 278 281 288 293 293 290
296 291 287 291 310 311 300 299 295 306 312 306 309 324 346 14 24 27 19 26 26 317 310 216 228 239 259 284 290 285 279 279 277 273 273 273 278 285 285 281 279 275 279 288
275 279 284 286 300 316 306 290 290 295 295 315 318 325 349 15 26 17 18 18 339 282 275 237 232 243 270 287 289 290 286 281 274 272 276 273 271 274 278 286 294 292 287 284
Height
1472 1469 1470 1472 1473 1474 1477 1478 1484 1482 1480 1480 1480 1482 1485 1487 1489 1491 1493 1495 1496 1497 1498 1499 1500 1500 1501 1501 1502 1502 1502 1503 1503 1503 1503 1504 1504 1504 1504 1504 1505 1505 1505 1505
1474 1470 1469 1471 1470 1471 1473 1474 1476 1477 1479 1477 1479 1482 1484 1487 1489 1491 1493 1494 1495 1496 1497 1498 1498 1499 1499 1500 1500 1500 1500 1501 1501 1501 1501 1501 1501 1501 1502 1502 1502 1502 1502 1502
1479 1470 1472 1475 1468 1469 1470 1470 1473 1478 1478 1477 1479 1482 1485 1487 1489 1491 1492 1493 1494 1495 1496 1497 1497 1497 1498 1498 1499 1499 1499 1499 1499 1498 1498 1498 1498 1498 1498 1499 1499 1499 1500 1500
1479 1478 1486 1473 1463 1465 1469 1470 1471 1473 1475 1478 1480 1483 1485 1487 1488 1490 1492 1493 1494 1494 1495 1496 1496 1496 1496 1497 1497 1497 1497 1497 1497 1496 1496 1496 1496 1495 1495 1496 1496 1496 1497 1497
1480 1482 1477 1469 1465 1466 1470 1473 1471 1473 1476 1479 1481 1483 1485 1486 1488 1489 1491 1492 1492 1493 1494 1494 1494 1494 1494 1495 1495 1495 1495 1495 1495 1494 1494 1493 1493 1493 1493 1493 1493 1494 1494 1494
1479 1483 1483 1473 1466 1466 1470 1476 1474 1474 1476 1478 1480 1484 1486 1486 1487 1488 1489 1490 1491 1491 1492 1492 1492 1492 1492 1493 1493 1493 1493 1493 1493 1493 1492 1491 1491 1491 1491 1491 1491 1491 1491 1492
1479 1479 1474 1469 1467 1469 1480 1480 1475 1475 1476 1478 1481 1483 1485 1485 1486 1486 1487 1488 1489 1489 1489 1490 1490 1490 1490 1491 1491 1491 1491 1491 1491 1490 1490 1490 1489 1489 1489 1489 1488 1489 1489 1489
1475 1478 1480 1471 1470 1474 1477 1475 1475 1476 1478 1479 1481 1482 1483 1484 1484 1485 1485 1486 1487 1487 1487 1488 1488 1488 1488 1488 1489 1489 1488 1488 1488 1488 1487 1487 1487 1486 1486 1486 1486 1486 1486 1486
1475 1477 1474 1473 1473 1475 1475 1476 1477 1478 1479 1480 1481 1482 1482 1483 1483 1483 1484 1484 1484 1485 1485 1485 1486 1486 1486 1486 1486 1486 1486 1485 1485 1485 1484 1484 1484 1483 1484 1483 1483 1483 1483 1483
1473 1473 1473 1474 1475 1475 1476 1477 1477 1478 1479 1480 1480 1480 1481 1482 1482 1482 1482 1482 1482 1483 1483 1483 1484 1484 1484 1484 1484 1484 1483 1483 1482 1482 1482 1481 1481 1481 1481 1480 1480 1480 1480 1480
1472 1473 1473 1474 1475 1476 1477 1477 1477 1478 1479 1479 1479 1479 1480 1480 1480 1480 1480 1480 1480 1481 1481 1481 1481 1482 1482 1482 1481 1481 1481 1480 1480 1479 1479 1478 1478 1478 1478 1477 1478 1477 1477 1477
1473 1473 1474 1475 1476 1476 1476 1477 1477 1477 1478 1478 1478 1478 1478 1478 1478 1478 1478 1478 1479 1479 1479 1479 1479 1479 1479 1479 1479 1478 1478 1477 1477 1476 1476 1476 1475 1475 1475 1475 1475 1474 1474 1474
1472 1472 1473 1474 1475 1475 1475 1475 1476 1476 1476 1476 1476 1476 1476 1476 1476 1476 1476 1477 1477 1477 1477 1477 1477 1477 1476 1476 1476 1475 1475 1474 1474 1474 1473 1473 1472 1472 1471 1472 1472 1471 1471 1470
1472 1472 1472 1473 1473 1474 1474 1474 1474 1474 1474 1474 1474 1474 1474 1474 1474 1474 1474 1475 1475 1475 1475 1475 1475 1474 1474 1473 1473 1473 1472 1472 1471 1471 1470 1470 1470 1469 1469 1468 1468 1467 1467 1467
1471 1471 1471 1471 1472 1472 1472 1472 1472 1472 1472 1472 1472 1472 1472 1472 1472 1472 1472 1472 1473 1473 1473 1473 1472 1472 1472 1471 1471 1470 1469 1469 1468 1468 1467 1467 1467 1466 1466 1465 1465 1464 1464 1463
1469 1469 1469 1469 1470 1470 1470 1471 1470 1470 1470 1470 1470 1470 1470 1470 1470 1470 1470 1470 1470 1470 1470 1470 1470 1469 1469 1469 1468 1467 1467 1466 1466 1465 1464 1464 1463 1463 1462 1462 1461 1461 1460 1460
1467 1466 1467 1467 1468 1468 1469 1469 1468 1468 1468 1468 1468 1468 1468 1468 1468 1467 1467 1468 1467 1467 1467 1467 1467 1467 1466 1466 1465 1464 1463 1463 1462 1462 1461 1461 1460 1459 1459 1459 1458 1458 1457 1457
1464 1465 1465 1465 1466 1466 1466 1466 1466 1466 1466 1465 1466 1466 1465 1465 1465 1465 1465 1465 1465 1465 1465 1465 1464 1464 1463 1463 1462 1461 1460 1459 1459 1458 1458 1457 1457 1456 1456 1455 1455 1454 1454 1454
1462 1462 1462 1463 1463 1463 1463 1463 1463 1463 1463 1463 1463 1463 1463 1463 1463 1463 1462 1462 1462 1461 1461 1461 1461 1460 1459 1459 1459 1458 1457 1456 1455 1455 1454 1453 1453 1453 1452 1452 1451 1451 1451 1450
1459 1459 1460 1460 1460 1461 1461 1461 1461 1460 1460 1460 1460 1460 1460 1460 1460 1459 1459 1459 1458 1458 1458 1458 1457 1456 1456 1455 1455 1454 1453 1453 1452 1451 1450 1450 1449 1449 1449 1449 1448 1448 1448 1447
1456 1457 1457 1457 1458 1458 1458 1458 1458 1458 1457 1457 1457 1457 1457 1457 1457 1456 1456 1455 1455 1455 1455 1454 1453 1452 1452 1452 1451 1451 1450 1449 1449 1448 1447 1447 1446 1446 1445 1445 1445 1444 1444 1443
1454 1455 1455 1455 1455 1455 1455 1455 1455 1455 1455 1455 1455 1454 1454 1453 1453 1453 1453 1453 1452 1452 1451 1450 1450 1449 1449 1448 1448 1447 1447 1446 1445 1445 1444 1443 1443 1442 1442 1442 1441 1441 1440 1439
1452 1452 1452 1452 1452 1452 1452 1452 1452 1452 1452 1452 1452 1451 1451 1450 1450 1450 1449 1449 1449 1448 1448 1447 1447 1446 1445 1445 1444 1444 1443 1443 1442 1442 1441 1440 1440 1439 1439 1438 1437 1437 1436 1436
1450 1450 1450 1450 1450 1450 1450 1450 1450 1450 1450 1449 1449 1449 1448 1448 1447 1447 1446 1446 1445 1445 1444 1444 1443 1443 1442 1442 1441 1441 1440 1440 1439 1439 1438 1437 1437 1436 1435 1435 1434 1433 1433 1432
1448 1448 1448 1448 1447 1447 1447 1447 1447 1447 1446 1446 1446 1446 1446 1445 1445 1444 1443 1443 1442 1442 1441 1440 1440 1440 1439 1439 1438 1438 1437 1437 1437 1436 1435 1434 1433 1433 1432 1431 1430 1430 1429 1428
1446 1446 1446 1445 1445 1445 1445 1444 1444 1444 1443 1443 1443 1443 1443 1442 1442 1441 1440 1440 1439 1439 1438 1438 1437 1437 1436 1436 1435 1435 1434 1434 1433 1433 1432 1431 1430 1429 1429 1428 1427 1426 1425 1424
1444 1444 1444 1443 1443 1443 1442 1442 1442 1441 1441 1440 1440 1440 1440 1439 1439 1438 1438 1437 1437 1436 1436 1435 1435 1434 1434 1433 1432 1432 1431 1431 1430 1430 1429 1428 1427 1426 1425 1424 1424 1422 1421 1421